Flag for Russia Weather past 2 weeks in Barnaul, Russia

Now
64 °F

Sunny.


Feels Like: 64 °F
Forecast: 45 / 60 °F
Wind: 15 mph from Southeast

Location: Barnaul Airport


UV Index: 3 (Moderate)

Visibility: 10 mi


Pressure: 29.71 "Hg

Humidity: 14%

Dew point: 14 °F

Location of BarnaulLocation

Historic Weather in Barnaul

°F

Barnaul temperature yesterday

Maximum temperature yesterday: 55 °F (at 5:30 PM)
Minimum temperature yesterday: 30 °F (at 1:30 AM)
Average temperature yesterday: 41 °F

Past Weeks' High & Low Weather Summary

 TemperatureHumidityPressure
High68 °F (Apr 19, 2:00 PM)100% (Apr 12, 4:00 AM)30.45 "Hg (Apr 12, 4:00 AM)
Low19 °F (Apr 13, 4:30 AM)13% (Apr 19, 4:00 PM)29.42 "Hg (Apr 22, 3:30 AM)
Average44 °F44%30.09 "Hg
* Reported Apr 10 12:00 Noon — Apr 25 12:00 Noon, Barnaul, Weather by CustomWeather, © 2014

Note: Actual official high and low records may vary slightly from our data, if they occured in-between our weather recording intervals... More about our weather records

Advertising

Historic Weather Conditions — Data for Previous 24 hours

 ConditionsComfort  
Time TempWeatherWind HumidityBarometerVisibility
12:00 PM
Apr 25
63 °FSunny.15 mph17%29.71 "Hg10 mi
11:30 AM59 °FSunny.13 mph23%29.74 "Hg10 mi
11:00 AM57 °FSunny.13 mph25%29.77 "Hg10 mi
10:30 AM55 °FSunny.13 mph28%29.77 "Hg10 mi
10:00 AM52 °FSunny.13 mph32%29.77 "Hg10 mi
9:30 AM48 °FSunny.10 mph37%29.80 "Hg10 mi
9:00 AM45 °FSunny.10 mph46%29.80 "Hg10 mi
8:30 AM43 °FSunny.10 mph49%29.83 "Hg10 mi
8:00 AM41 °FSunny.10 mph53%29.83 "Hg10 mi
7:30 AM37 °FSunny.8 mph60%29.83 "Hg10 mi
7:00 AM37 °FClear.8 mph60%29.83 "Hg10 mi
6:30 AM37 °FClear.8 mph60%29.83 "Hg10 mi
6:00 AM37 °FClear.8 mph60%29.86 "Hg10 mi
5:30 AM37 °FClear.8 mph56%29.86 "Hg10 mi
5:00 AM37 °FClear.8 mph56%29.86 "Hg10 mi
4:30 AM37 °FClear.8 mph56%29.89 "Hg10 mi
4:00 AM37 °FClear.8 mph52%29.89 "Hg10 mi
3:30 AM39 °FClear.8 mph48%29.89 "Hg10 mi
3:00 AM39 °FClear.8 mph45%29.92 "Hg10 mi
2:30 AM39 °FClear.8 mph45%29.92 "Hg10 mi
2:00 AM41 °FClear.10 mph42%29.95 "Hg10 mi
1:30 AM41 °FClear.8 mph39%29.95 "Hg10 mi
1:00 AM41 °FClear.10 mph39%29.95 "Hg10 mi
12:30 AM43 °FClear.10 mph34%29.98 "Hg10 mi
12:00 AM43 °FClear.10 mph34%29.98 "Hg10 mi
11:30 PM
Apr 24
45 °FClear.10 mph31%29.98 "Hg10 mi
11:00 PM45 °FClear.10 mph31%29.98 "Hg10 mi
10:30 PM45 °FClear.10 mph31%30.01 "Hg10 mi
10:00 PM46 °FClear.8 mph29%30.01 "Hg10 mi
9:30 PM48 °FSunny.6 mph25%30.01 "Hg10 mi
9:00 PM50 °FSunny.6 mph22%30.04 "Hg10 mi
8:30 PM50 °FSunny.6 mph22%30.04 "Hg10 mi
8:00 PM52 °FSunny.10 mph17%30.04 "Hg10 mi
7:30 PM54 °FSunny.10 mph15%30.04 "Hg10 mi
7:00 PM54 °FSunny.13 mph16%30.07 "Hg10 mi
6:30 PM54 °FSunny.13 mph16%30.07 "Hg10 mi
6:00 PM55 °FSunny.13 mph15%30.07 "Hg10 mi
5:30 PM55 °FSunny.13 mph15%30.09 "Hg10 mi
5:00 PM54 °FSunny.15 mph15%30.09 "Hg10 mi
4:30 PM54 °FSunny.17 mph15%30.09 "Hg10 mi
4:00 PM54 °FSunny.15 mph14%30.12 "Hg10 mi
3:30 PM52 °FSunny.15 mph16%30.12 "Hg10 mi
3:00 PM52 °FSunny.15 mph16%30.15 "Hg10 mi
2:30 PM50 °FSunny.17 mph17%30.15 "Hg10 mi
2:00 PM48 °FSunny.17 mph20%30.18 "Hg10 mi
1:30 PM46 °FSunny.15 mph23%30.18 "Hg10 mi
1:00 PM45 °FSunny.17 mph25%30.21 "Hg10 mi
Weather by CustomWeather, © 2014

See weather overview